Location: Anglesey
(53.1800°N, 4.2200°W)
Time: 09:53:05
(UTC+01:00)

ISS - Pass Details

Date: 12 October 2017
Orbit: 401 x 408 km, 51.6° (Epoch: 20 October)

Event Time Altitude Azimuth Distance (km) Brightness Sun altitude
Rises 19:54:46 0° 279° (W) 2,327 2.0 -13.9°
Reaches altitude 10° 19:57:10 10° 263° (W) 1,466 0.3 -14.2°
Maximum altitude 19:59:42 21° 212° (SSW) 982 -1.6 -14.6°
Enters shadow 20:02:10 10° 162° (SSE) 1,443 -1.3 -15.0°
